CZ-6A DEB

Satellite information

Favourite Embed

Satellite Type and Status

DEBRISIN ORBIT

Key statistics

Satellite CZ-6A DEB at a glance.

Uptime

909

Days in orbit

Revolutions

≈ 13.8

Per day

Orbit

SSO

Sun Synchronous Orbit

Inclination

98.9

Latest

Satellite identification and parameters

Extended collection of information and parameters for CZ-6A DEB.

Object identification

Identified? True

Debris? True

Object name: CZ-6A DEB

International designator: 2022-151EQ

Object number (NORAD): 54416

Object ID (CCSDS): 54416

Country: PEOPLES REPUBLIC OF CHINA (PRC)

Current information (Y/N): Y

RCS size: SMALL

Orbital parameters

Period: 104.158 minutes

Inclination: 98.8836 deg

SMA: 7333.105 km

Apoapsis: 1085.014 km

Periapsis: 824.925 km

RAAN: 91.697 deg

Eccentricy: 0.0177339

Argument of periapsis: 158.5825 deg

Mean anomaly: 202.2871 deg

Mean motion: 13.82518417 rev/day

Mean motion (dot): 0.00000387 rev/day2

B* drag term: 0.00034919 1/REarth

Two-line elements (TLE)

Creation date: May 8, 2025, 3:01 a.m.

Reference frame: TEME

Reference center: EARTH

Epoch: May 7, 2025, 9:01 p.m. UTC

TLE line 0: 0 CZ-6A DEB

TLE line 1: 1 54416U 22151EQ 25127.87635304 .00000387 00000-0 34919-3 0 9991

TLE line 2: 2 54416 98.8836 91.6970 0177339 158.5825 202.2871 13.82518417125134

Live tracking on map

Real-time ground track for satellite CZ-6A DEB.

In-orbit conjunctions

A list of the most updated potential collisions computed for object CZ-6A DEB.

Target Orbit TCA Probability of collision Miss distance Type
FENGYUN 1C DEB SSO 2024-11-12 03:34:18 0.0006611213 186.0 (m) DEBRIS
FENGYUN 1C DEB SSO 2024-09-25 22:49:26 0.000852285 337.0 (m) DEBRIS

Associated space launch

Chinese satellite reported for atmospheric/ocean/environmental/spatial parameter research purposes, details TBD.

CZ-6A DEB was lifted into orbit during the mission ‘Long March 6A | Yunhai 3’, on board a Long March 6A space rocket.

The launch took place on Nov. 11, 2022, 10:52 p.m. from Launch Complex 9A.

For more information about the launch, click the button.

Launch to space Long March 6A | Yunhai 3
Long March 6A | Yunhai 3

Agency: N/A

Status: Launch Successful

Launch date: Nov. 11, 2022, 10:52 p.m. UTC

Rocket: Long March 6A

Launch pad: Launch Complex 9A

Location: Taiyuan Satellite Launch Center, People's Republic of China

...

Latest news about this satellite

There are no fresh news available about this satellite. Check back as we update our databases every day.


Newsletter sign-up

Weekly statistics, charts and insights to help you stay on top of the space industry.